Regional Weather Roundup
Issued by NWS Huntsville, AL

Home | Current Version | Previous Version | Text Only | Print | Product List | Glossary On
Versions: 1 2 3 4 5 6 7 8 9 10 11 12 13 14 15 16 17 18 19 20 21 22 23 24 25 26 27 28 29 30 31 32 33 34 35 36 37 38 39 40 41 42 43 44 45 46 47 48 49 50
000
ASUS44 KHUN 042110
RWRHUN

WEATHER ROUNDUP FOR THE TENNESSEE VALLEY
NATIONAL WEATHER SERVICE HUNTSVILLE AL
400 PM CDT SAT JUL 04 2015

ALZ001>004-042200-
NORTHWEST ALABAMA

CITY           SKY/WX    TMP DP  RH WIND       PRES   REMARKS
SHOALS AIRPORT CLOUDY    79  67  66 CALM      29.99F
SHOALS TVA RES   N/A     77 N/A N/A MISG        N/A
$$

ALZ005>007-016-042200-
NORTH CENTRAL ALABAMA

CITY           SKY/WX    TMP DP  RH WIND       PRES   REMARKS
DECATUR AP     CLOUDY    80  71  74 NW8       30.01S
HUNTSVILLE AP  CLOUDY    83  70  64 W7        30.00F
HUN NWS/UAH      N/A     81  65  57 W6          N/A
MERIDIANVILLE  PTSUNNY   79  63  57 SW12      30.01S
REDSTONE ARSN  CLOUDY    80  70  70 SW6       30.00S
VINEMONT AP    FAIR      78  67  68 SW3       30.05F
$$

ALZ008>010-042200-
NORTHEAST ALABAMA

CITY           SKY/WX    TMP DP  RH WIND       PRES   REMARKS
ALBERTVILLE    PTSUNNY   81  70  69 SW9G16    30.03F
FORT PAYNE     MOSUNNY   81  61  50 SW10      30.02F
SCOTTSBORO AP  MOSUNNY   81  70  69 S3        30.01F
SCOTTSBORO HCN   N/A     81 N/A N/A MISG        N/A
VALLEY HEAD      N/A     81 N/A N/A MISG        N/A
$$

TNZ076-096-097-042200-
SOUTHEASTERN MIDDLE TENNESSEE

CITY           SKY/WX    TMP DP  RH WIND       PRES   REMARKS
TULLAHOMA      PTSUNNY   75  66  73 S3        30.03S
WINCHESTER     PTSUNNY   81  70  69 S5        30.01F
$$

...SURROUNDING SITES...

CITY           SKY/WX    TMP DP  RH WIND       PRES   REMARKS
ATLANTA        PTSUNNY   83  67  58 SW5       30.06F
ANNISTON       MOSUNNY   84  69  60 SW5       30.03F
BIRMINGHAM     CLOUDY    81  70  69 W7        30.05F
CHATTANOOGA    CLOUDY    81  66  60 SW7       30.02S
CORINTH        DRIZZLE   75  68  78 W6        29.97R
DALTON         PTSUNNY   79  70  73 S3        30.03S
GADSDEN        PTSUNNY   84  66  54 S5        30.02S
GOLDEN TRNGL   CLOUDY    77  70  78 S7        29.99R
HALEYVILLE     LGT RAIN  77  69  76 CALM      30.03F
JACKSON TN     CLOUDY    76  70  82 W6        29.97F
MEMPHIS        CLOUDY    77  69  76 W6        29.96F
NASHVILLE      CLOUDY    78  71  79 CALM      29.98F
ROME           MOSUNNY   83  68  60 VRB7      30.03S
SAVANNAH       MOSUNNY   75  32  20 CALM      29.97F
TUPELO         RAIN      70  68  93 NW3       29.99S FOG
TUSCALOOSA     LGT RAIN  75  73  93 S12       29.98F
$$

...GULF COAST WEATHER...

CITY           SKY/WX    TMP DP  RH WIND       PRES   REMARKS
GULFPORT       PTSUNNY   86  68  54 S5        30.03R
PASCAGOULA     SUNNY     88  76  67 SW8G18    30.03R HX  99
MOBILE         MOSUNNY   89  73  59 SW12      30.04R HX  97
GULF SHORES    CLEAR     87  75  68 SW12G18   30.04R HX  97
PENSACOLA      PTSUNNY   87  75  67 SW12G20   30.03F HX  96
DESTIN         MOSUNNY   89  77  67 SW6       30.04S HX 101
PANAMA CITY    SUNNY     88  77  68 SW9       30.05F HX 100
APPALACHICOLA  SUNNY     91  76  61 S14       30.06S HX 103
$$



USA.gov is the U.S. government's official web portal to all federal, state and local government web resources and services.